Time,TemperatureF,DewpointF,PressureIn,WindDirection,WindDirectionDegrees,WindSpeedMPH,WindSpeedGustMPH,Humidity,HourlyPrecipIn,Conditions,Clouds,dailyrainin,SoftwareType,DateUTC
2015-07-01 00:03:00,62.1,61.2,30.09,NE,48,0.0,0.0,97,0.00,,,0.00,WeatherCatV1.24B11,2015-07-01 04:03:00,
2015-07-01 00:08:00,62.0,61.1,30.09,NE,48,0.0,1.0,97,0.00,,,0.00,WeatherCatV1.24B11,2015-07-01 04:08:00,
2015-07-01 00:13:00,62.0,61.1,30.08,NE,48,0.0,0.0,97,0.00,,,0.00,WeatherCatV1.24B11,2015-07-01 04:13:00,
2015-07-01 00:18:00,62.1,61.2,30.08,NE,48,0.0,0.0,97,0.00,,,0.00,WeatherCatV1.24B11,2015-07-01 04:18:00,
2015-07-01 00:23:00,62.1,61.2,30.09,NE,48,0.0,0.0,97,0.00,,,0.00,WeatherCatV1.24B11,2015-07-01 04:23:00,
2015-07-01 00:28:00,62.1,61.2,30.09,NE,48,0.0,0.0,97,0.00,,,0.00,WeatherCatV1.24B11,2015-07-01 04:28:00,
2015-07-01 00:33:00,62.1,61.2,30.09,NE,48,0.0,0.0,97,0.00,,,0.00,WeatherCatV1.24B11,2015-07-01 04:33:00,
2015-07-01 00:38:00,62.2,61.3,30.08,NE,48,0.0,0.0,97,0.00,,,0.00,WeatherCatV1.24B11,2015-07-01 04:38:00,
2015-07-01 00:43:00,62.2,61.3,30.08,NE,48,0.0,0.0,97,0.00,,,0.00,WeatherCatV1.24B11,2015-07-01 04:43:00,
2015-07-01 00:48:00,62.2,61.3,30.08,NE,48,0.0,0.0,97,0.00,,,0.00,WeatherCatV1.24B11,2015-07-01 04:48:00,
2015-07-01 00:53:00,62.2,61.3,30.08,NE,48,0.0,0.0,97,0.00,,,0.00,WeatherCatV1.24B11,2015-07-01 04:53:00,
2015-07-01 00:58:00,62.2,61.3,30.08,NE,48,0.0,0.0,97,0.00,,,0.00,WeatherCatV1.24B11,2015-07-01 04:58:00,
2015-07-01 01:03:00,62.2,61.3,30.08,NE,48,0.0,0.0,97,0.00,,,0.00,WeatherCatV1.24B11,2015-07-01 05:03:00,
2015-07-01 01:08:00,62.1,61.2,30.08,NE,48,0.0,0.0,97,0.00,,,0.00,WeatherCatV1.24B11,2015-07-01 05:08:00,
2015-07-01 01:13:00,62.2,61.3,30.08,NE,48,0.0,0.0,97,0.00,,,0.00,WeatherCatV1.24B11,2015-07-01 05:13:00,
2015-07-01 01:18:00,62.2,61.3,30.08,NE,48,0.0,0.0,97,0.00,,,0.00,WeatherCatV1.24B11,2015-07-01 05:18:00,
2015-07-01 01:23:00,62.1,61.2,30.08,NE,48,0.0,0.0,97,0.00,,,0.00,WeatherCatV1.24B11,2015-07-01 05:23:00,
2015-07-01 01:28:00,62.1,61.2,30.08,NE,48,0.0,0.0,97,0.00,,,0.00,WeatherCatV1.24B11,2015-07-01 05:28:00,
2015-07-01 01:33:00,62.1,61.2,30.08,NE,48,0.0,0.0,97,0.00,,,0.00,WeatherCatV1.24B11,2015-07-01 05:33:00,
2015-07-01 01:38:00,62.3,61.7,30.08,NE,48,0.0,0.0,98,0.00,,,0.00,WeatherCatV1.24B11,2015-07-01 05:38:00,
2015-07-01 01:43:00,62.3,61.7,30.08,NE,48,0.0,0.0,98,0.00,,,0.00,WeatherCatV1.24B11,2015-07-01 05:43:00,
2015-07-01 01:48:00,62.4,61.5,30.08,NE,48,0.0,0.0,97,0.00,,,0.00,WeatherCatV1.24B11,2015-07-01 05:48:00,
2015-07-01 01:53:00,62.3,61.4,30.07,NE,48,0.0,0.0,97,0.00,,,0.00,WeatherCatV1.24B11,2015-07-01 05:53:00,
2015-07-01 01:58:00,62.3,61.4,30.07,NE,48,0.0,0.0,97,0.00,,,0.00,WeatherCatV1.24B11,2015-07-01 05:58:00,
2015-07-01 02:03:00,62.3,61.4,30.08,NE,48,0.0,0.0,97,0.00,,,0.00,WeatherCatV1.24B11,2015-07-01 06:03:00,
2015-07-01 02:08:00,62.3,61.4,30.07,NE,48,0.0,0.0,97,0.00,,,0.00,WeatherCatV1.24B11,2015-07-01 06:08:00,
2015-07-01 02:13:00,62.3,61.4,30.07,NE,48,0.0,0.0,97,0.00,,,0.00,WeatherCatV1.24B11,2015-07-01 06:13:00,
2015-07-01 02:18:00,62.3,61.7,30.07,NE,48,0.0,0.0,98,0.00,,,0.00,WeatherCatV1.24B11,2015-07-01 06:18:00,
2015-07-01 02:23:00,62.5,61.9,30.07,NE,48,0.0,0.0,98,0.00,,,0.00,WeatherCatV1.24B11,2015-07-01 06:23:00,
2015-07-01 02:28:00,63.1,62.5,30.08,NE,48,0.0,0.0,98,0.00,,,0.00,WeatherCatV1.24B11,2015-07-01 06:28:00,
2015-07-01 02:33:00,63.4,62.8,30.08,NE,48,0.0,0.0,98,0.00,,,0.00,WeatherCatV1.24B11,2015-07-01 06:33:00,
2015-07-01 02:38:00,63.8,63.2,30.07,NE,48,0.0,0.0,98,0.00,,,0.00,WeatherCatV1.24B11,2015-07-01 06:38:00,
2015-07-01 02:43:00,64.1,63.5,30.07,NE,48,0.0,0.0,98,0.00,,,0.00,WeatherCatV1.24B11,2015-07-01 06:43:00,
2015-07-01 02:48:00,64.4,63.8,30.06,NE,48,0.0,0.0,98,0.00,,,0.00,WeatherCatV1.24B11,2015-07-01 06:48:00,
2015-07-01 02:53:00,64.5,63.9,30.06,NE,48,0.0,0.0,98,0.00,,,0.00,WeatherCatV1.24B11,2015-07-01 06:53:00,
2015-07-01 02:58:00,64.5,63.9,30.07,NE,48,0.0,0.0,98,0.00,,,0.00,WeatherCatV1.24B11,2015-07-01 06:58:00,
2015-07-01 03:03:00,63.8,62.9,30.07,SW,233,0.0,0.0,97,0.00,,,0.00,WeatherCatV1.24B11,2015-07-01 07:03:00,
2015-07-01 03:08:00,63.4,62.5,30.07,SW,233,0.0,0.0,97,0.00,,,0.00,WeatherCatV1.24B11,2015-07-01 07:08:00,
2015-07-01 03:13:00,63.1,62.2,30.07,SW,233,0.0,0.0,97,0.00,,,0.00,WeatherCatV1.24B11,2015-07-01 07:13:00,
2015-07-01 03:18:00,63.1,62.2,30.07,SW,233,0.0,1.0,97,0.00,,,0.00,WeatherCatV1.24B11,2015-07-01 07:18:00,
2015-07-01 03:23:00,62.9,62.0,30.07,SW,233,0.0,0.0,97,0.00,,,0.00,WeatherCatV1.24B11,2015-07-01 07:23:00,
2015-07-01 03:28:00,62.5,61.6,30.07,SW,233,0.0,0.0,97,0.00,,,0.00,WeatherCatV1.24B11,2015-07-01 07:28:00,
2015-07-01 03:33:00,62.3,61.1,30.07,SW,233,0.0,0.0,96,0.00,,,0.00,WeatherCatV1.24B11,2015-07-01 07:33:00,
2015-07-01 03:38:00,62.1,61.2,30.07,SW,233,0.0,0.0,97,0.00,,,0.00,WeatherCatV1.24B11,2015-07-01 07:38:00,
2015-07-01 03:43:00,61.9,61.0,30.07,SW,233,0.0,0.0,97,0.00,,,0.00,WeatherCatV1.24B11,2015-07-01 07:43:00,
2015-07-01 03:48:00,61.8,60.9,30.07,SW,233,0.0,0.0,97,0.00,,,0.00,WeatherCatV1.24B11,2015-07-01 07:48:00,
2015-07-01 03:53:00,61.8,60.9,30.07,SW,233,0.0,0.0,97,0.00,,,0.00,WeatherCatV1.24B11,2015-07-01 07:53:00,
2015-07-01 03:58:00,61.7,60.8,30.07,SW,233,0.0,0.0,97,0.00,,,0.00,WeatherCatV1.24B11,2015-07-01 07:58:00,
2015-07-01 04:03:00,61.6,60.7,30.07,SW,233,0.0,0.0,97,0.00,,,0.00,WeatherCatV1.24B11,2015-07-01 08:03:00,
2015-07-01 04:08:00,61.7,61.1,30.07,SW,233,0.0,0.0,98,0.00,,,0.00,WeatherCatV1.24B11,2015-07-01 08:08:00,
2015-07-01 04:13:00,61.7,61.1,30.07,SW,233,0.0,0.0,98,0.00,,,0.00,WeatherCatV1.24B11,2015-07-01 08:13:00,
2015-07-01 04:18:00,61.6,61.0,30.07,SW,233,0.0,0.0,98,0.00,,,0.00,WeatherCatV1.24B11,2015-07-01 08:18:00,
2015-07-01 04:23:00,61.6,61.0,30.07,SW,233,0.0,0.0,98,0.00,,,0.00,WeatherCatV1.24B11,2015-07-01 08:23:00,
2015-07-01 04:28:00,61.6,61.0,30.07,SW,233,0.0,0.0,98,0.00,,,0.00,WeatherCatV1.24B11,2015-07-01 08:28:00,
2015-07-01 04:33:00,61.7,61.1,30.07,NNW,338,0.0,1.0,98,0.00,,,0.00,WeatherCatV1.24B11,2015-07-01 08:33:00,
2015-07-01 04:38:00,62.5,61.9,30.07,ESE,107,0.0,0.0,98,0.00,,,0.00,WeatherCatV1.24B11,2015-07-01 08:38:00,
2015-07-01 04:43:00,63.1,62.5,30.07,NE,46,0.0,1.0,98,0.00,,,0.00,WeatherCatV1.24B11,2015-07-01 08:43:00,
2015-07-01 04:48:00,63.4,62.8,30.07,NE,46,0.0,0.0,98,0.00,,,0.00,WeatherCatV1.24B11,2015-07-01 08:48:00,
2015-07-01 04:53:00,63.6,63.3,30.07,NE,46,0.0,0.0,99,0.00,,,0.00,WeatherCatV1.24B11,2015-07-01 08:53:00,
2015-07-01 04:58:00,63.7,63.4,30.07,NE,46,0.0,0.0,99,0.00,,,0.00,WeatherCatV1.24B11,2015-07-01 08:58:00,
2015-07-01 05:03:00,63.7,63.4,30.07,NE,46,0.0,0.0,99,0.00,,,0.00,WeatherCatV1.24B11,2015-07-01 09:03:00,
2015-07-01 05:08:00,63.6,63.3,30.07,NE,46,0.0,0.0,99,0.00,,,0.00,WeatherCatV1.24B11,2015-07-01 09:08:00,
2015-07-01 05:13:00,63.6,63.0,30.07,NNE,24,0.0,0.0,98,0.00,,,0.00,WeatherCatV1.24B11,2015-07-01 09:13:00,
2015-07-01 05:19:00,63.5,62.9,30.07,NNE,24,0.0,0.0,98,0.00,,,0.00,WeatherCatV1.24B11,2015-07-01 09:19:00,
2015-07-01 05:24:00,63.4,62.8,30.07,NNE,24,0.0,0.0,98,0.00,,,0.00,WeatherCatV1.24B11,2015-07-01 09:24:00,
2015-07-01 05:29:00,63.4,62.8,30.07,NNE,24,0.0,0.0,98,0.00,,,0.00,WeatherCatV1.24B11,2015-07-01 09:29:00,
2015-07-01 05:39:00,63.5,62.9,30.07,NNE,24,0.0,0.0,98,0.00,,,0.00,WeatherCatV1.24B11,2015-07-01 09:39:00,
2015-07-01 05:44:00,63.4,62.8,30.07,NNE,24,0.0,0.0,98,0.00,,,0.00,WeatherCatV1.24B11,2015-07-01 09:44:00,
2015-07-01 05:49:00,63.5,62.9,30.07,ENE,67,0.0,3.0,98,0.00,,,0.00,WeatherCatV1.24B11,2015-07-01 09:49:00,
2015-07-01 05:54:00,63.5,62.9,30.07,ENE,77,0.0,1.0,98,0.00,,,0.00,WeatherCatV1.24B11,2015-07-01 09:54:00,
2015-07-01 05:59:00,63.5,62.9,30.08,ENE,77,0.0,0.0,98,0.00,,,0.00,WeatherCatV1.24B11,2015-07-01 09:59:00,
2015-07-01 06:04:00,63.6,63.0,30.08,ENE,77,0.0,0.0,98,0.00,,,0.00,WeatherCatV1.24B11,2015-07-01 10:04:00,
2015-07-01 06:09:00,63.5,62.9,30.08,ENE,77,0.0,0.0,98,0.00,,,0.00,WeatherCatV1.24B11,2015-07-01 10:09:00,
2015-07-01 06:14:00,63.5,62.9,30.08,ENE,77,0.0,0.0,98,0.00,,,0.00,WeatherCatV1.24B11,2015-07-01 10:14:00,
2015-07-01 06:19:00,63.5,62.9,30.09,ENE,77,0.0,0.0,98,0.00,,,0.00,WeatherCatV1.24B11,2015-07-01 10:19:00,
2015-07-01 06:24:00,63.5,62.9,30.09,ENE,77,0.0,0.0,98,0.00,,,0.00,WeatherCatV1.24B11,2015-07-01 10:24:00,
2015-07-01 06:29:00,63.5,62.9,30.09,ENE,77,0.0,0.0,98,0.00,,,0.00,WeatherCatV1.24B11,2015-07-01 10:29:00,
2015-07-01 06:34:00,63.4,62.5,30.09,ENE,77,0.0,0.0,97,0.00,,,0.00,WeatherCatV1.24B11,2015-07-01 10:34:00,
2015-07-01 06:39:00,63.3,62.7,30.09,ENE,77,0.0,0.0,98,0.00,,,0.00,WeatherCatV1.24B11,2015-07-01 10:39:00,
2015-07-01 06:44:00,63.5,62.9,30.09,NNE,22,2.0,3.0,98,0.00,,,0.00,WeatherCatV1.24B11,2015-07-01 10:44:00,
2015-07-01 06:49:00,63.8,63.2,30.09,NNE,32,0.0,1.0,98,0.00,,,0.00,WeatherCatV1.24B11,2015-07-01 10:49:00,
2015-07-01 06:54:00,63.9,63.3,30.09,North,5,0.0,2.0,98,0.00,,,0.00,WeatherCatV1.24B11,2015-07-01 10:54:00,
2015-07-01 06:59:00,63.9,63.3,30.09,ENE,69,0.0,0.0,98,0.00,,,0.00,WeatherCatV1.24B11,2015-07-01 10:59:00,
2015-07-01 07:04:00,63.9,63.0,30.09,ENE,69,0.0,0.0,97,0.00,,,0.00,WeatherCatV1.24B11,2015-07-01 11:04:00,
2015-07-01 07:09:00,63.8,62.9,30.09,ENE,69,0.0,0.0,97,0.00,,,0.00,WeatherCatV1.24B11,2015-07-01 11:09:00,
2015-07-01 07:14:00,63.8,62.9,30.09,ENE,69,0.0,0.0,97,0.00,,,0.00,WeatherCatV1.24B11,2015-07-01 11:14:00,
2015-07-01 07:19:00,63.8,62.9,30.09,ENE,69,0.0,0.0,97,0.00,,,0.00,WeatherCatV1.24B11,2015-07-01 11:19:00,
2015-07-01 07:24:00,63.9,63.3,30.09,ENE,69,0.0,0.0,98,0.00,,,0.00,WeatherCatV1.24B11,2015-07-01 11:24:00,
2015-07-01 07:29:00,64.0,63.4,30.09,ENE,69,0.0,0.0,98,0.00,,,0.00,WeatherCatV1.24B11,2015-07-01 11:29:00,
2015-07-01 07:34:00,64.1,63.5,30.10,ENE,69,0.0,0.0,98,0.00,,,0.00,WeatherCatV1.24B11,2015-07-01 11:34:00,
2015-07-01 07:39:00,63.8,62.9,30.10,ENE,69,0.0,0.0,97,0.00,,,0.00,WeatherCatV1.24B11,2015-07-01 11:39:00,
2015-07-01 07:44:00,63.6,62.7,30.10,ENE,69,0.0,0.0,97,0.00,,,0.00,WeatherCatV1.24B11,2015-07-01 11:44:00,
2015-07-01 07:49:00,63.5,62.6,30.10,ENE,69,0.0,0.0,97,0.00,,,0.00,WeatherCatV1.24B11,2015-07-01 11:49:00,
2015-07-01 07:54:00,63.5,62.6,30.10,ENE,69,0.0,0.0,97,0.00,,,0.00,WeatherCatV1.24B11,2015-07-01 11:54:00,
2015-07-01 07:59:00,63.6,63.0,30.10,ENE,69,0.0,0.0,98,0.00,,,0.00,WeatherCatV1.24B11,2015-07-01 11:59:00,
2015-07-01 08:04:00,63.8,63.2,30.10,ENE,69,0.0,1.0,98,0.00,,,0.00,WeatherCatV1.24B11,2015-07-01 12:04:00,
2015-07-01 08:09:00,64.4,63.8,30.09,ENE,69,0.0,1.0,98,0.00,,,0.00,WeatherCatV1.24B11,2015-07-01 12:09:00,
2015-07-01 08:14:00,64.6,64.0,30.09,ENE,69,0.0,0.0,98,0.00,,,0.00,WeatherCatV1.24B11,2015-07-01 12:14:00,
2015-07-01 08:19:00,64.8,64.2,30.09,ENE,69,0.0,0.0,98,0.00,,,0.00,WeatherCatV1.24B11,2015-07-01 12:19:00,
2015-07-01 08:24:00,65.2,64.6,30.09,ENE,69,0.0,0.0,98,0.00,,,0.00,WeatherCatV1.24B11,2015-07-01 12:24:00,
2015-07-01 08:29:00,65.7,65.1,30.10,East,99,0.0,2.0,98,0.00,,,0.00,WeatherCatV1.24B11,2015-07-01 12:29:00,
2015-07-01 08:34:00,66.0,65.4,30.10,East,99,0.0,0.0,98,0.00,,,0.00,WeatherCatV1.24B11,2015-07-01 12:34:00,
2015-07-01 08:39:00,66.3,65.7,30.10,East,99,0.0,0.0,98,0.00,,,0.00,WeatherCatV1.24B11,2015-07-01 12:39:00,
2015-07-01 08:44:00,66.3,65.7,30.10,SW,227,0.0,2.0,98,0.00,,,0.00,WeatherCatV1.24B11,2015-07-01 12:44:00,
2015-07-01 08:49:00,66.1,64.9,30.10,SW,228,1.0,3.0,96,0.00,,,0.00,WeatherCatV1.24B11,2015-07-01 12:49:00,
2015-07-01 08:54:00,65.8,64.9,30.10,SW,228,0.0,0.0,97,0.00,,,0.00,WeatherCatV1.24B11,2015-07-01 12:54:00,
2015-07-01 08:59:00,65.8,64.9,30.11,SW,228,0.0,0.0,97,0.00,,,0.00,WeatherCatV1.24B11,2015-07-01 12:59:00,
2015-07-01 09:04:00,65.8,64.9,30.11,SW,228,0.0,1.0,97,0.00,,,0.00,WeatherCatV1.24B11,2015-07-01 13:04:00,
2015-07-01 09:09:00,65.7,64.8,30.11,SW,228,0.0,0.0,97,0.00,,,0.00,WeatherCatV1.24B11,2015-07-01 13:09:00,
2015-07-01 09:14:00,65.6,64.7,30.11,SW,228,0.0,0.0,97,0.00,,,0.00,WeatherCatV1.24B11,2015-07-01 13:14:00,
2015-07-01 09:19:00,65.8,64.9,30.11,SW,228,0.0,0.0,97,0.00,,,0.00,WeatherCatV1.24B11,2015-07-01 13:19:00,
2015-07-01 09:24:00,65.9,65.0,30.11,SW,228,1.0,1.0,97,0.00,,,0.00,WeatherCatV1.24B11,2015-07-01 13:24:00,
2015-07-01 09:29:00,66.0,65.1,30.11,SW,228,1.0,1.0,97,0.00,,,0.00,WeatherCatV1.24B11,2015-07-01 13:29:00,
2015-07-01 09:34:00,66.3,65.4,30.11,SW,228,0.0,1.0,97,0.00,,,0.00,WeatherCatV1.24B11,2015-07-01 13:34:00,
2015-07-01 09:39:00,66.7,65.8,30.11,SW,228,0.0,0.0,97,0.00,,,0.00,WeatherCatV1.24B11,2015-07-01 13:39:00,
2015-07-01 09:44:00,67.1,66.2,30.11,SW,228,1.0,1.0,97,0.00,,,0.00,WeatherCatV1.24B11,2015-07-01 13:44:00,
2015-07-01 09:49:00,67.4,65.9,30.11,SW,228,0.0,1.0,95,0.00,,,0.00,WeatherCatV1.24B11,2015-07-01 13:49:00,
2015-07-01 09:54:00,67.7,66.2,30.11,SW,225,0.0,0.0,95,0.00,,,0.00,WeatherCatV1.24B11,2015-07-01 13:54:00,
2015-07-01 09:59:00,68.1,66.6,30.11,SW,225,0.0,1.0,95,0.00,,,0.00,WeatherCatV1.24B11,2015-07-01 13:59:00,
2015-07-01 10:04:00,68.3,66.8,30.10,SW,225,1.0,1.0,95,0.00,,,0.00,WeatherCatV1.24B11,2015-07-01 14:04:00,
2015-07-01 10:09:00,68.8,67.0,30.10,SW,225,0.0,0.0,94,0.00,,,0.00,WeatherCatV1.24B11,2015-07-01 14:09:00,
2015-07-01 10:14:00,69.1,66.4,30.11,ENE,68,0.0,3.0,91,0.00,,,0.00,WeatherCatV1.24B11,2015-07-01 14:14:00,
2015-07-01 10:19:00,69.9,66.5,30.11,ESE,117,0.0,1.0,89,0.00,,,0.00,WeatherCatV1.24B11,2015-07-01 14:19:00,
2015-07-01 10:24:00,70.6,66.5,30.11,South,189,0.0,2.0,87,0.00,,,0.00,WeatherCatV1.24B11,2015-07-01 14:24:00,
2015-07-01 10:29:00,71.1,66.7,30.11,SW,227,1.0,4.0,86,0.00,,,0.00,WeatherCatV1.24B11,2015-07-01 14:29:00,
2015-07-01 10:34:00,71.3,66.6,30.12,WSW,244,0.0,0.0,85,0.00,,,0.00,WeatherCatV1.24B11,2015-07-01 14:34:00,
2015-07-01 10:39:00,71.4,67.0,30.12,WSW,244,0.0,0.0,86,0.00,,,0.00,WeatherCatV1.24B11,2015-07-01 14:39:00,
2015-07-01 10:44:00,71.5,67.4,30.12,WSW,244,0.0,0.0,87,0.00,,,0.00,WeatherCatV1.24B11,2015-07-01 14:44:00,
2015-07-01 10:49:00,71.5,67.4,30.12,WSW,244,0.0,1.0,87,0.00,,,0.00,WeatherCatV1.24B11,2015-07-01 14:49:00,
2015-07-01 10:54:00,71.8,68.0,30.12,SW,231,0.0,2.0,88,0.00,,,0.00,WeatherCatV1.24B11,2015-07-01 14:54:00,
2015-07-01 10:59:00,72.1,68.3,30.12,SW,231,2.0,2.0,88,0.00,,,0.00,WeatherCatV1.24B11,2015-07-01 14:59:00,
2015-07-01 11:04:00,72.4,66.6,30.11,North,0,0.0,0.0,82,0.00,,,0.00,WeatherCatV1.24B11,2015-07-01 15:04:00,
2015-07-01 11:09:00,73.0,66.8,30.11,SE,124,1.0,2.0,81,0.00,,,0.00,WeatherCatV1.24B11,2015-07-01 15:09:00,
2015-07-01 11:14:00,73.4,66.8,30.11,WSW,244,0.0,4.0,80,0.00,,,0.00,WeatherCatV1.24B11,2015-07-01 15:14:00,
2015-07-01 11:19:00,73.5,66.6,30.11,East,85,1.0,1.0,79,0.00,,,0.00,WeatherCatV1.24B11,2015-07-01 15:19:00,
2015-07-01 11:24:00,73.8,66.9,30.11,East,94,1.0,3.0,79,0.00,,,0.00,WeatherCatV1.24B11,2015-07-01 15:24:00,
2015-07-01 11:29:00,74.0,66.3,30.11,ESE,109,0.0,1.0,77,0.00,,,0.00,WeatherCatV1.24B11,2015-07-01 15:29:00,
2015-07-01 11:34:00,74.3,67.3,30.10,NE,56,0.0,0.0,79,0.00,,,0.00,WeatherCatV1.24B11,2015-07-01 15:34:00,
2015-07-01 11:39:00,74.5,67.9,30.10,SSW,193,0.0,2.0,80,0.00,,,0.00,WeatherCatV1.24B11,2015-07-01 15:39:00,
2015-07-01 11:44:00,74.6,67.6,30.11,SSW,208,4.0,4.0,79,0.00,,,0.00,WeatherCatV1.24B11,2015-07-01 15:44:00,
2015-07-01 11:49:00,75.0,66.9,30.11,South,174,3.0,5.0,76,0.00,,,0.00,WeatherCatV1.24B11,2015-07-01 15:49:00,
2015-07-01 11:54:00,75.1,67.8,30.11,SE,143,1.0,2.0,78,0.00,,,0.00,WeatherCatV1.24B11,2015-07-01 15:54:00,
2015-07-01 11:59:00,75.2,68.2,30.11,SSW,213,0.0,0.0,79,0.00,,,0.00,WeatherCatV1.24B11,2015-07-01 15:59:00,
2015-07-01 12:04:00,75.4,67.3,30.11,SSE,148,1.0,1.0,76,0.00,,,0.00,WeatherCatV1.24B11,2015-07-01 16:04:00,
2015-07-01 12:09:00,75.7,67.2,30.11,SSE,162,1.0,3.0,75,0.00,,,0.00,WeatherCatV1.24B11,2015-07-01 16:09:00,
2015-07-01 12:14:00,75.7,67.6,30.12,SSW,211,1.0,1.0,76,0.00,,,0.00,WeatherCatV1.24B11,2015-07-01 16:14:00,
2015-07-01 12:19:00,75.6,67.5,30.12,SSE,148,1.0,3.0,76,0.00,,,0.00,WeatherCatV1.24B11,2015-07-01 16:19:00,
2015-07-01 12:24:00,75.5,67.8,30.12,SSE,148,0.0,1.0,77,0.00,,,0.00,WeatherCatV1.24B11,2015-07-01 16:24:00,
2015-07-01 12:29:00,75.3,67.2,30.12,SE,146,0.0,0.0,76,0.00,,,0.00,WeatherCatV1.24B11,2015-07-01 16:29:00,
2015-07-01 12:34:00,75.3,67.2,30.12,SE,146,0.0,0.0,76,0.00,,,0.00,WeatherCatV1.24B11,2015-07-01 16:34:00,
2015-07-01 12:39:00,75.5,67.4,30.12,SE,146,0.0,1.0,76,0.00,,,0.00,WeatherCatV1.24B11,2015-07-01 16:39:00,
2015-07-01 12:44:00,75.6,67.9,30.12,SSE,167,0.0,2.0,77,0.00,,,0.00,WeatherCatV1.24B11,2015-07-01 16:44:00,
2015-07-01 12:49:00,75.7,68.0,30.12,SW,227,0.0,1.0,77,0.00,,,0.00,WeatherCatV1.24B11,2015-07-01 16:49:00,
2015-07-01 12:54:00,75.9,66.2,30.12,ENE,73,0.0,2.0,72,0.00,,,0.00,WeatherCatV1.24B11,2015-07-01 16:54:00,
2015-07-01 12:59:00,75.9,66.2,30.12,ENE,66,0.0,3.0,72,0.00,,,0.00,WeatherCatV1.24B11,2015-07-01 16:59:00,
2015-07-01 13:04:00,76.1,66.8,30.11,South,172,0.0,2.0,73,0.00,,,0.00,WeatherCatV1.24B11,2015-07-01 17:04:00,
2015-07-01 13:09:00,76.2,66.5,30.11,South,175,0.0,3.0,72,0.00,,,0.00,WeatherCatV1.24B11,2015-07-01 17:09:00,
2015-07-01 13:14:00,76.5,68.0,30.11,South,190,0.0,5.0,75,0.00,,,0.00,WeatherCatV1.24B11,2015-07-01 17:14:00,
2015-07-01 13:19:00,76.7,66.6,30.11,SSW,213,0.0,2.0,71,0.00,,,0.00,WeatherCatV1.24B11,2015-07-01 17:19:00,
2015-07-01 13:24:00,76.8,67.1,30.11,NW,306,0.0,2.0,72,0.00,,,0.00,WeatherCatV1.24B11,2015-07-01 17:24:00,
2015-07-01 13:29:00,77.0,67.3,30.11,SE,126,0.0,2.0,72,0.00,,,0.00,WeatherCatV1.24B11,2015-07-01 17:29:00,
2015-07-01 13:34:00,77.0,66.9,30.11,SSW,193,0.0,2.0,71,0.00,,,0.00,WeatherCatV1.24B11,2015-07-01 17:34:00,
2015-07-01 13:39:00,76.9,66.8,30.11,SSW,196,1.0,3.0,71,0.00,,,0.00,WeatherCatV1.24B11,2015-07-01 17:39:00,
2015-07-01 13:44:00,76.7,65.7,30.10,ENE,74,2.0,3.0,69,0.00,,,0.00,WeatherCatV1.24B11,2015-07-01 17:44:00,
2015-07-01 13:49:00,76.8,66.7,30.10,ENE,72,0.0,2.0,71,0.00,,,0.00,WeatherCatV1.24B11,2015-07-01 17:49:00,
2015-07-01 13:54:00,77.0,67.7,30.10,NE,48,0.0,0.0,73,0.00,,,0.00,WeatherCatV1.24B11,2015-07-01 17:54:00,
2015-07-01 13:59:00,77.2,68.6,30.11,ESE,113,0.0,0.0,75,0.00,,,0.00,WeatherCatV1.24B11,2015-07-01 17:59:00,
2015-07-01 14:04:00,77.3,67.1,30.10,ENE,73,3.0,3.0,71,0.00,,,0.00,WeatherCatV1.24B11,2015-07-01 18:04:00,
2015-07-01 14:09:00,77.3,67.6,30.11,NE,34,0.0,0.0,72,0.00,,,0.00,WeatherCatV1.24B11,2015-07-01 18:09:00,
2015-07-01 14:14:00,77.4,67.7,30.10,NNE,33,0.0,0.0,72,0.00,,,0.00,WeatherCatV1.24B11,2015-07-01 18:14:00,
2015-07-01 14:19:00,77.6,67.8,30.10,NE,34,0.0,0.0,72,0.00,,,0.00,WeatherCatV1.24B11,2015-07-01 18:19:00,
2015-07-01 14:24:00,77.8,66.8,30.10,NE,34,0.0,0.0,69,0.00,,,0.00,WeatherCatV1.24B11,2015-07-01 18:24:00,
2015-07-01 14:29:00,77.6,67.0,30.10,SSW,203,0.0,3.0,70,0.00,,,0.00,WeatherCatV1.24B11,2015-07-01 18:29:00,
2015-07-01 14:34:00,77.3,66.7,30.10,SSW,203,0.0,0.0,70,0.00,,,0.00,WeatherCatV1.24B11,2015-07-01 18:34:00,
2015-07-01 14:39:00,77.1,66.1,30.10,South,188,0.0,1.0,69,0.00,,,0.00,WeatherCatV1.24B11,2015-07-01 18:39:00,
2015-07-01 14:44:00,77.0,67.3,30.10,South,183,0.0,2.0,72,0.00,,,0.00,WeatherCatV1.24B11,2015-07-01 18:44:00,
2015-07-01 14:49:00,77.1,68.9,30.10,WSW,245,1.0,1.0,76,0.00,,,0.00,WeatherCatV1.24B11,2015-07-01 18:49:00,
2015-07-01 14:54:00,77.3,68.3,30.10,SW,236,1.0,1.0,74,0.00,,,0.00,WeatherCatV1.24B11,2015-07-01 18:54:00,
2015-07-01 14:59:00,77.5,68.5,30.09,NNW,344,0.0,0.0,74,0.00,,,0.00,WeatherCatV1.24B11,2015-07-01 18:59:00,
2015-07-01 15:04:00,77.4,69.2,30.09,SW,236,0.0,0.0,76,0.00,,,0.00,WeatherCatV1.24B11,2015-07-01 19:04:00,
2015-07-01 15:09:00,77.2,68.6,30.09,SW,236,0.0,0.0,75,0.00,,,0.00,WeatherCatV1.24B11,2015-07-01 19:09:00,
2015-07-01 15:14:00,77.0,69.2,30.09,SW,236,0.0,0.0,77,0.00,,,0.00,WeatherCatV1.24B11,2015-07-01 19:14:00,
2015-07-01 15:19:00,76.9,66.8,30.09,SSW,205,0.0,2.0,71,0.00,,,0.00,WeatherCatV1.24B11,2015-07-01 19:19:00,
2015-07-01 15:24:00,76.8,69.0,30.08,SSW,211,2.0,3.0,77,0.00,,,0.00,WeatherCatV1.24B11,2015-07-01 19:24:00,
2015-07-01 15:29:00,76.5,68.0,30.08,West,262,0.0,0.0,75,0.00,,,0.00,WeatherCatV1.24B11,2015-07-01 19:29:00,
2015-07-01 15:34:00,76.4,69.4,30.08,SW,233,0.0,1.0,79,0.00,,,0.00,WeatherCatV1.24B11,2015-07-01 19:34:00,
2015-07-01 15:39:00,76.4,68.6,30.08,SW,233,0.0,0.0,77,0.00,,,0.00,WeatherCatV1.24B11,2015-07-01 19:39:00,
2015-07-01 15:44:00,76.3,67.8,30.08,ESE,112,1.0,2.0,75,0.00,,,0.00,WeatherCatV1.24B11,2015-07-01 19:44:00,
2015-07-01 15:49:00,76.2,68.1,30.08,East,95,0.0,0.0,76,0.00,,,0.00,WeatherCatV1.24B11,2015-07-01 19:49:00,
2015-07-01 15:54:00,76.0,67.5,30.08,North,350,0.0,0.0,75,0.00,,,0.00,WeatherCatV1.24B11,2015-07-01 19:54:00,
2015-07-01 15:59:00,75.9,68.9,30.08,North,350,0.0,0.0,79,0.00,,,0.00,WeatherCatV1.24B11,2015-07-01 19:59:00,
2015-07-01 16:04:00,75.7,68.7,30.08,North,350,0.0,0.0,79,0.00,,,0.00,WeatherCatV1.24B11,2015-07-01 20:04:00,
2015-07-01 16:09:00,75.4,67.7,30.08,ENE,65,0.0,2.0,77,0.00,,,0.00,WeatherCatV1.24B11,2015-07-01 20:09:00,
2015-07-01 16:14:00,75.1,68.5,30.08,ENE,65,0.0,0.0,80,0.00,,,0.00,WeatherCatV1.24B11,2015-07-01 20:14:00,
2015-07-01 16:19:00,75.1,69.2,30.08,ENE,65,0.0,0.0,82,0.00,,,0.00,WeatherCatV1.24B11,2015-07-01 20:19:00,
2015-07-01 16:24:00,75.1,69.6,30.08,ENE,65,0.0,0.0,83,0.00,,,0.00,WeatherCatV1.24B11,2015-07-01 20:24:00,
2015-07-01 16:29:00,75.0,69.1,30.08,ENE,65,0.0,0.0,82,0.00,,,0.00,WeatherCatV1.24B11,2015-07-01 20:29:00,
2015-07-01 16:34:00,74.9,69.4,30.09,ENE,65,0.0,0.0,83,0.00,,,0.00,WeatherCatV1.24B11,2015-07-01 20:34:00,
2015-07-01 16:39:00,74.9,69.7,30.08,ENE,65,0.0,0.0,84,0.00,,,0.00,WeatherCatV1.24B11,2015-07-01 20:39:00,
2015-07-01 16:44:00,74.9,69.4,30.09,ENE,65,0.0,0.0,83,0.00,,,0.00,WeatherCatV1.24B11,2015-07-01 20:44:00,
2015-07-01 16:49:00,74.8,69.6,30.08,ENE,65,0.0,0.0,84,0.00,,,0.00,WeatherCatV1.24B11,2015-07-01 20:49:00,
2015-07-01 16:54:00,74.8,69.3,30.09,ENE,65,0.0,0.0,83,0.00,,,0.00,WeatherCatV1.24B11,2015-07-01 20:54:00,
2015-07-01 16:59:00,74.7,68.8,30.09,ENE,65,0.0,0.0,82,0.00,,,0.00,WeatherCatV1.24B11,2015-07-01 20:59:00,
2015-07-01 17:04:00,74.8,69.3,30.09,ENE,65,0.0,0.0,83,0.00,,,0.00,WeatherCatV1.24B11,2015-07-01 21:04:00,
2015-07-01 17:09:00,74.8,69.3,30.09,ENE,65,0.0,0.0,83,0.00,,,0.00,WeatherCatV1.24B11,2015-07-01 21:09:00,
2015-07-01 17:14:00,74.8,69.3,30.09,ENE,65,0.0,0.0,83,0.00,,,0.00,WeatherCatV1.24B11,2015-07-01 21:14:00,
2015-07-01 17:19:00,74.8,68.9,30.09,ENE,65,0.0,0.0,82,0.00,,,0.00,WeatherCatV1.24B11,2015-07-01 21:19:00,
2015-07-01 17:24:00,74.7,68.5,30.09,ENE,65,0.0,0.0,81,0.00,,,0.00,WeatherCatV1.24B11,2015-07-01 21:24:00,
2015-07-01 17:29:00,74.6,69.1,30.09,ENE,65,0.0,0.0,83,0.00,,,0.00,WeatherCatV1.24B11,2015-07-01 21:29:00,
2015-07-01 17:34:00,74.5,69.0,30.09,ENE,65,0.0,0.0,83,0.00,,,0.01,WeatherCatV1.24B11,2015-07-01 21:34:00,
2015-07-01 17:39:00,74.2,69.0,30.10,ENE,65,0.0,0.0,84,0.10,,,0.01,WeatherCatV1.24B11,2015-07-01 21:39:00,
2015-07-01 17:44:00,73.8,69.3,30.10,ENE,65,0.0,0.0,86,0.15,,,0.03,WeatherCatV1.24B11,2015-07-01 21:44:00,
2015-07-01 17:49:00,73.1,68.3,30.10,ENE,67,0.0,1.0,85,0.10,,,0.04,WeatherCatV1.24B11,2015-07-01 21:49:00,
2015-07-01 17:54:00,72.4,68.3,30.10,ENE,67,0.0,1.0,87,0.13,,,0.05,WeatherCatV1.24B11,2015-07-01 21:54:00,
2015-07-01 17:59:00,71.7,68.3,30.11,East,81,0.0,2.0,89,1.09,,,0.06,WeatherCatV1.24B11,2015-07-01 21:59:00,
2015-07-01 18:04:00,71.1,68.0,30.11,East,81,0.0,2.0,90,0.61,,,0.12,WeatherCatV1.24B11,2015-07-01 22:04:00,